STARLINK-3108 (49439 NORAD) Tracking and Keplerian Element Data

This shows tracking and keplerian element data for the satellite.

Feedback or suggestion? Click here.




ElementValue
Catalog49439
NameSTARLINK-3108
Epoch Orbit370
Epoch Day15.91668981
Epoch Year2022
RAAN179.3405
Inclination53.215
Eccentricity0.0003308
Argument of Perigee8.5086
Mean Anonmoly205.2232
Mean Motion15.73211978
Decay Rate-0.00043515
L11 49439U 21104AH 22015.91668981 -.00043515 00000+0 -30695-3 0 9990
L22 49439 53.2150 179.3405 0003308 8.5086 205.2232 15.73211978 3707

Live tracking and technical data element details for STARLINK-3108 (NORAD 49439). STARLINK-3108 can be tracked NOW for your location showing map with azimuth and elevation plus other details from your city location.

Track the satellite on the map from your city or location and see movement details for azimuth, elevation, latitude, longitude, range, height, and movement on the map or in text.







IsCatalogInMostPopularTable: catalog: 49439, numindb: 9
Update: records affected: 1



GetName: 49439 STARLINK-3108

Hit Count: updated at: Thu, 20 Jan 2022 17:56:50 GMT